Location: Aytr�
(46.1357°N, 1.1145°W)
Time: 21:28:01
(UTC+00:00)

Meteor 1-19 Rocket - Pass Details

Date: 03 March 2021
Orbit: 807 x 928 km, 81.2° (Epoch: 21 April)

Event Time Altitude Azimuth Distance (km) Brightness Sun altitude
Rises 18:41:02 0° 349° (N) 3,569 7.6 -9.0°
Reaches altitude 10° 18:43:33 10° 351° (N) 2,611 6.9 -9.4°
Maximum altitude 18:49:32 77° 78° (ENE) 921 4.3 -10.4°
Drops below altitude 10° 18:55:17 10° 165° (SSE) 2,517 6.5 -11.4°
Sets 18:57:40 0° 167° (SSE) 3,432 7.2 -11.9°
